Voltar ao catálogo

FALCON 9 R/B

AtivoGTO
NORAD 43179·ROCKET BODY·🇺🇸 United States

Lançado Jan 31, 2018 de Cape Canaveral Space Force Station

Loading…

TLE

EnvelhecendoSource: Space-Track

Época: Sep 14, 2026, 07:00 UTC

1 43179U 18013B   26257.29167207  .00016005  77354-6  90207-3 0  9998
2 43179  23.9038  64.8611 7156080 349.1949   1.1358  2.47401246 56653

Acompanhe FALCON 9 R/B em tempo real com AllMySat

Download on the App Store